Regional Weather Roundup
Issued by NWS

Home | Current Version | Previous Version | Graphics & Text | Print | Product List | Glossary On
Versions: 1 2 3 4 5 6 7 8 9 10 11 12 13 14 15 16 17 18 19 20 21 22 23 24 25 26 27 28 29 30 31 32 33 34 35 36 37 38 39 40 41 42 43 44 45 46 47 48 49 50
000
ASUS43 KIND 201959
RWRIN

WEATHER ROUNDUP FOR INDIANA
NATIONAL WEATHER SERVICE INDIANAPOLIS IN
300 PM EST MON FEB 20 2017

NOTE: "FAIR" INDICATES FEW OR NO CLOUDS BELOW 12,000 FEET WITH NO
SIGNIFICANT WEATHER AND/OR OBSTRUCTIONS TO VISIBILITY.

* - STATION DOES NOT REPORT WEATHER SUCH AS PRECIPITATION OR FOG.

+ - STATION NOT QUALITY CONTROLLED BY THE NATIONAL WEATHER SERVICE.
    USE DATA WITH CAUTION...ESPECIALLY DEWPOINT AND RELATIVE
    HUMIDITY OBSERVATIONS.

INZ001>003-010>013-019-020-202100-
NORTHWEST INDIANA

CITY           SKY/WX    TMP DP  RH WIND       PRES   REMARKS
GARY /AIRPORT/ PTSUNNY   68  43  40 SE14G26   30.05F
KNOX *+        MOSUNNY   64  14  14 SE15G21   30.08F
MICHIGAN CITY+ MOSUNNY   66  43  42 S12G18    30.07F
RENSSELAER +   MOSUNNY   66  43  42 SE15      30.06F

$$

LMZ046-743>745-202100-
SOUTHERN LAKE MICHIGAN

STATION/POSITION TIME  TEMP    WIND        PRES    WAVE
                       AIR SEA DIR/SP/G            HT
                 (UTC) (F)     (DEG/KT/KT) (MB)    (FT)
BURNS HARBOR     1940   65     170/ 15/ 21 1018.3F
MICHIGAN CITY    1930   64     130/ 12/ 16   N/A

$$

INZ004-005-014>016-021>024-202100-
NORTH CENTRAL INDIANA

CITY           SKY/WX    TMP DP  RH WIND       PRES   REMARKS
GOSHEN         SUNNY     64  41  42 SE16      30.11F
SOUTH BEND     MOSUNNY   64  42  44 SE18G25   30.11F

$$

INZ006>009-017-018-025>027-202100-
NORTHEAST INDIANA

CITY           SKY/WX    TMP DP  RH WIND       PRES   REMARKS
ANGOLA *+      SUNNY     59  39  47 SE10      30.15F
FORT WAYNE     PTSUNNY   64  44  48 SE13      30.14F
KENDALLVILLE + MOSUNNY   62  39  43 SE13      30.13F

$$

INZ028-029-035-036-043>045-051>053-202100-
WEST CENTRAL INDIANA

CITY           SKY/WX    TMP DP  RH WIND       PRES   REMARKS
LAFAYETTE      MOSUNNY   67  44  43 SE9       30.07F
TERRE HAUTE    CLOUDY    68  47  46 SE14      30.06F

$$

INZ030>032-037>040-046>048-054>057-064-065-202100-
CENTRAL INDIANA

CITY           SKY/WX    TMP DP  RH WIND       PRES   REMARKS
COLUMBUS       SUNNY     64  48  55 SE8       30.12F
GREENWOOD *+   SUNNY     65  49  55 S10       30.11F
INDIANAPOLIS   PTSUNNY   65  48  54 SE12      30.09F
-EAGLE CREEK   SUNNY     65  46  50 SE8G16    30.09F
KOKOMO +       MOSUNNY   64  44  48 SE14      30.12F
MT COMFORT *+  SUNNY     64  46  52 S10       30.12F
SHELBYVILLE    SUNNY     66  47  50 SE13      30.11F

$$

INZ033-034-041-042-049-050-058-059-202100-
EAST CENTRAL INDIANA

CITY           SKY/WX    TMP DP  RH WIND       PRES   REMARKS
MUNCIE         MOSUNNY   66  40  38 VRB7      30.13F

$$

INZ060-061-067>069-081>083-085>088-202100-
SOUTHWEST INDIANA

CITY           SKY/WX    TMP DP  RH WIND       PRES   REMARKS
EVANSVILLE     MOSUNNY   72  53  51 SE9       30.06F
HUNTINGBURG *+ MOSUNNY   70  48  46 S9        30.08F

$$

INZ062-063-066-070>080-084-089>092-202100-
SOUTH CENTRAL AND SOUTHEAST INDIANA

CITY           SKY/WX    TMP DP  RH WIND       PRES   REMARKS
BLOOMINGTON    SUNNY     67  44  43 SE12      30.09F
MADISON *+     SUNNY     68  46  45 E5        30.13F
SEYMOUR +      SUNNY     68  48  49 SE8       30.10F

$$





USA.gov is the U.S. government's official web portal to all federal, state and local government web resources and services.